Flag Weather past 2 weeks in Tacoma, Washington, U.S.A.

Now
46 °F

Clear.


Feels Like: 44 °F
Forecast: 41 / 49 °F
Wind: 5 mph from Southeast

Location: Tacoma Narrows Airport

Current Time: Nov 23, 2014 at 10:46:00 PM

Latest Report: Nov 23, 2014 at 9:53 PM


Visibility: 10 mi

Pressure: 30.31 "Hg

Humidity: 86%

Dew point: 42 °F

Location of TacomaLocation

Historic Weather in Tacoma — Graph

°F

Tacoma temperature yesterday

Maximum temperature yesterday: 51 °F (at 1:53 PM)
Minimum temperature yesterday: 44 °F (at 7:53 AM)
Average temperature yesterday: 47 °F

Past Weeks' High & Low Weather Summary

 TemperatureHumidityPressure
High56 °F (Nov 9, 12:55 PM)100% (Nov 17, 7:53 AM)30.53 "Hg (Nov 17, 7:53 AM)
Low29 °F (Nov 16, 6:53 AM)21% (Nov 12, 12:53 PM)29.31 "Hg (Nov 21, 5:53 PM)
Average43 °F67%30.10 "Hg
* Reported Nov 8 9:53 PM — Nov 23 9:53 PM, Tacoma, Weather by CustomWeather, © 2014

Note: Actual official high and low records may vary slightly from our data, if they occured in-between our weather recording intervals... More about our weather records

Advertising

Tacoma weather history for previous 24 hours

 ConditionsComfort  
Time TempWeatherWind HumidityBarometerVisibility
9:53 PM
Nov 23
46 °FClear.5 mph86%30.31 "Hg10 mi
8:53 PM47 °FClear.6 mph80%30.30 "Hg10 mi
7:53 PM46 °FClear.6 mph79%30.29 "Hg10 mi
6:53 PM47 °FClear.7 mph77%30.27 "Hg10 mi
5:53 PM48 °FClear.5 mph74%30.24 "Hg10 mi
4:53 PM50 °FPassing clouds.7 mph68%30.21 "Hg10 mi
3:53 PM51 °FPassing clouds.9 mph63%30.19 "Hg10 mi
2:53 PM53 °FScattered clouds.10 mph64%30.17 "Hg10 mi
1:53 PM53 °FSunny.9 mph66%30.15 "Hg10 mi
12:53 PM54 °FScattered clouds.10 mph74%30.14 "Hg10 mi
11:53 AM52 °FScattered clouds.15 mph80%30.14 "Hg10 mi
10:53 AM49 °FScattered clouds.15 mph90%30.12 "Hg10 mi
9:53 AM49 °FMostly cloudy.17 mph86%30.12 "Hg10 mi
8:53 AM47 °FPartly sunny.16 mph93%30.10 "Hg10 mi
7:53 AM47 °FRain. Fog.15 mph93%30.11 "Hg2 mi
6:53 AM49 °FOvercast.20 mph80%30.09 "Hg10 mi
5:53 AM48 °FPassing clouds.17 mph83%30.10 "Hg10 mi
4:53 AM48 °FPassing clouds.21 mph83%30.11 "Hg10 mi
3:53 AM47 °FPartly cloudy.20 mph83%30.14 "Hg10 mi
2:53 AM47 °FMostly cloudy.14 mph86%30.16 "Hg10 mi
1:53 AM47 °FPassing clouds.14 mph86%30.16 "Hg10 mi
12:53 AM46 °FLight rain. Mostly cloudy.15 mph89%30.16 "Hg10 mi
11:53 PM
Nov 22
46 °FRain. Fog.8 mph89%30.16 "Hg4 mi
10:53 PM47 °FPartly cloudy.16 mph83%30.14 "Hg10 mi
Weather by CustomWeather, © 2014

See weather overviewHow to use our weather pages